STARLINK-32684, 62194

Orbit data source: Space-Track

STARLINK-32684, 62194 is a payload satellite owned by SpaceX/Seattle (US) in LEO that was launched on Wed, 04 Dec 2024 UTC via an FALCON 9 launch vehicle from the Air Force Eastern Test Range (AFETR). Payload-class satellites include a variety of spacecraft equipped with specific instruments for various scientific and technological missions. These include communications satellites like Starlink; space stations such as the ISS; scientific satellites like the Hubble; Earth observation satellites from companies like Planet Labs, Umbra, and HawkEye 360; GPS; miniature CubeSats for education and research; and military/defense satellites.

Loading next visibility...
Identifier
62194, 2024-229C
Orbit
LEO
Last TLE update
5 hours ago
Origin
Manufacturer
SpaceX/Seattle
Mission
Operational Commercial Communications
Bus & Motor
STARLINK V2M, Unknown motor
Mass
730 kg wet, ~700 kg dry
Launch date (UTC)
2024-12-04 (7 months ago)
Launch vehicle
FALCON 9
Launch site
Air Force Eastern Test Range (AFETR)
Object type
Payload
Rocket body
Debris
Shape & HBR
Box + 2 Pan, 29 m
Radar Cross Section
33.884 m², Large (>1 m²)

Expand to show TLE details & history

TLE from 5 hours ago
0 STARLINK-32684
1 62194U 24229C   25190.11900116  .00019979  00000-0  73313-3 0  9992
2 62194  42.9974 205.9939 0002094 280.4640  79.5976 15.27598877 34497
Epoch: 2025-07-09T02:51Z
TLE epoch observation values (Epoch: 2025-07-09T02:51:21.7Z)
Latitude
0.00002°
Longitude
-124.15071°
Altitude
482.509 km
Speed
7.626 km/s
True Right ascension
13h 43m 58s
True Declination
0° 00' 00"
Sunlit
Object was in daylight at epoch
Visualization orbit readout
Latitude
28.17935°
Longitude
19.75454°
Altitude
484.443 km
Speed
7.627 km/s
Apparent Right ascension
02h 52m 23s
Apparent Declination
-11° 04' 03"
Sunlit
Object is in daylight
Visualization observer readout
Local Sidereal Time
20:19:05
Azimuth
93.304° ESE
Elevation
-13.424°
Doppler factor
1
Orbital elements
Apogee altitude
486.375 km
Perigee altitude
483.501 km
Semi-major axis
6,863.075 km
Eccentricity
0.00021
Inclination
42.9974°
RAAN
205.9939°
Arg. of periapsis
280.464°
True anomaly
Unknown
Mean anomaly
79.5976°
Eccentric anomaly
Unknown
Mean motion
3.81738 °/min
Orbital period
94.31 mins
BSTAR
0.00073313
Loading maneuver chart data...
Loading SW <> Apogee altitude chart data...
Loading historical data...
Loading historical data...
Loading historical data...
Loading historical data...
Loading historical data...
Loading historical data...
Loading historical data...

STARLINK-32684 Visibility forecast

Observer location: undefined°, undefined°

Span
Click to sort rows by Start time (UTC) header in descending order
Start Az.
Max El. time (UTC)
Max El. Az.
Max El.
End time (UTC)
End Az.
7 mins2025-07-09 09:34:28.637Z285.007° WNW2025-07-09 09:37:28.637Z245.12° WSW41.463°2025-07-09 09:41:28.637Z119.841° SE
4 mins2025-07-10 04:11:28.637Z197.546° SSW2025-07-10 04:13:28.637Z131.26° SE29.768°2025-07-10 04:15:28.637Z89.919° E
6 mins2025-07-10 05:49:28.637Z267.175° W2025-07-10 05:51:28.637Z308.936° NW41.659°2025-07-10 05:55:28.637Z70.735° E
6 mins2025-07-10 07:28:28.637Z291.913° WNW2025-07-10 07:31:28.637Z34.153° NE37.263°2025-07-10 07:34:28.637Z82.57° E
|